• Join FlightAware (Why Join?)
  • Login
  • US Flag 
07:23PM EDT


 

Airport Tracker/Info


-or-


 

Live Flight TrackerFlight Track Log ✈ SWA920 ✈ 30-Apr-2013 ✈ KMHT - KMDW

Flight Track Log - Related Links

Times and Time Zones

All times are in EDT time to prevent confusion due to time zone crossing. See the SWA920 flight status page for this flight to view local times or setup timezone preferences in your user account.

Time Position Orientation Groundspeed Altitude Reporting Facility
EDT Latitude Longitude Course Direction KTS MPH feet Rate Location/Type
12:43PM 42.9167 -71.4167 200° South 143 165 1,100  Level KA90
12:44PM 42.8833 -71.4333 200° South 189 217 2,200 1,740 Climbing KA90
12:44PM 42.8672 -71.4572 227° Southwest 224 258 3,100 2,700 Climbing Boston Center
12:45PM 42.8742 -71.5450 276° West 207 238 6,100 2,940 Climbing Boston Center
12:46PM 42.8956 -71.6294 289° West 228 262 9,000 2,700 Climbing Boston Center
12:47PM 42.9047 -71.7569 276° West 299 344 11,600 2,820 Climbing Boston Center
12:48PM 42.9139 -71.8758 276° West 343 395 14,700 3,180 Climbing Boston Center
12:49PM 42.9269 -72.0289 277° West 363 418 18,000 3,120 Climbing Boston Center
12:50PM 42.9378 -72.1736 276° West 377 434 21,000 2,640 Climbing Boston Center
12:51PM 42.9525 -72.3097 278° West 396 456 23,300 2,400 Climbing Boston Center
12:52PM 42.9653 -72.4628 277° West 406 467 25,800 2,340 Climbing Boston Center
12:53PM 42.9733 -72.6244 274° West 418 481 28,000 2,100 Climbing Boston Center
12:54PM 42.9792 -72.7892 273° West 425 489 30,000 2,040 Climbing Boston Center
12:55PM 42.9892 -72.9539 275° West 437 503 32,100 2,280 Climbing Boston Center
12:56PM 43.0069 -73.1328 278° West 442 509 34,600 2,040 Climbing Boston Center
12:57PM 43.0158 -73.3261 274° West 437 503 36,700 1,320 Climbing Boston Center
12:58PM 43.0231 -73.4822 274° West 431 496 37,600 900 Climbing Boston Center
12:59PM 43.0339 -73.6472 275° West 426 490 38,600 960 Climbing Boston Center
01:00PM 43.0425 -73.8122 274° West 426 490 39,600 660 Climbing Boston Center
01:01PM 43.0528 -73.9744 275° West 431 496 40,000 180 Climbing Boston Center
01:02PM 43.0631 -74.1394 275° West 431 496 40,000  Level Boston Center
01:03PM 43.0708 -74.3017 274° West 436 502 40,000  Level Boston Center
01:04PM 43.0806 -74.4611 275° West 436 502 40,000  Level Boston Center
01:05PM 43.0900 -74.6264 275° West 436 502 40,000  Level Boston Center
01:06PM 43.0972 -74.7889 274° West 436 502 40,000  Level Boston Center
01:07PM 43.1064 -74.9514 274° West 436 502 40,000  Level Boston Center
01:08PM 43.1111 -75.1108 272° West 430 495 40,000  Level Boston Center
01:09PM 43.1217 -75.2733 275° West 430 495 40,000  Level Boston Center
01:10PM 43.1283 -75.4189 274° West 430 495 40,000  Level Boston Center
01:11PM 43.1283 -75.5811 270° West 430 495 40,000  Level Boston Center
01:12PM 43.1050 -75.7364 258° West 419 482 40,000  Level Boston Center
01:13PM 43.0797 -75.8914 257° West 424 488 40,000  Level Boston Center
01:16PM 43.0214 -76.2633 258° West 414 476 40,000  Level Cleveland Center
01:17PM 42.9961 -76.4214 258° West 426 490 40,000  Level Cleveland Center
01:18PM 42.9703 -76.5819 258° West 431 496 40,000  Level Cleveland Center
01:19PM 42.9444 -76.7369 257° West 431 496 40,000  Level Cleveland Center
01:20PM 42.9183 -76.8972 258° West 436 502 40,000  Level Cleveland Center
01:21PM 42.8900 -77.0606 257° West 436 502 40,000  Level Cleveland Center
01:22PM 42.8636 -77.2178 257° West 436 502 40,000  Level Cleveland Center
01:23PM 42.8347 -77.3808 256° West 436 502 40,000  Level Cleveland Center
01:24PM 42.8097 -77.5378 258° West 436 502 40,000  Level Cleveland Center
01:25PM 42.7847 -77.6947 258° West 436 502 40,000  Level Cleveland Center
01:26PM 42.7556 -77.8686 257° West 436 502 40,000  Level Cleveland Center
01:27PM 42.7278 -78.0197 256° West 431 496 40,000  Level Cleveland Center
01:28PM 42.6997 -78.1761 256° West 431 496 40,000  Level Cleveland Center
01:29PM 42.6717 -78.3353 257° West 431 496 40,000  Level Cleveland Center
01:30PM 42.6414 -78.4944 256° West 436 502 40,000  Level Cleveland Center
01:31PM 42.6131 -78.6533 256° West 436 502 40,000  Level Cleveland Center
01:32PM 42.5861 -78.8094 257° West 436 502 40,000  Level Cleveland Center
01:33PM 42.5553 -78.9681 255° West 436 502 40,000  Level Cleveland Center
01:34PM 42.5281 -79.1294 257° West 436 502 40,000  Level Cleveland Center
01:35PM 42.4967 -79.2906 255° West 436 502 40,000  Level Cleveland Center
01:36PM 42.4650 -79.4489 255° West 436 502 40,000  Level Cleveland Center
01:37PM 42.4333 -79.6097 255° West 436 502 40,000  Level Cleveland Center
01:38PM 42.4031 -79.7706 256° West 436 502 40,000  Level Cleveland Center
01:39PM 42.3728 -79.9283 255° West 436 502 40,000  Level Cleveland Center
01:40PM 42.3383 -80.0889 254° West 436 502 40,000  Level Cleveland Center
01:41PM 42.3075 -80.2492 255° West 436 502 40,000  Level Cleveland Center
01:42PM 42.2767 -80.4064 255° West 436 502 40,000  Level Cleveland Center
01:43PM 42.2456 -80.5664 255° West 436 502 40,000  Level Cleveland Center
01:44PM 42.2142 -80.7289 255° West 442 509 40,000  Level Cleveland Center
01:45PM 42.1806 -80.8886 254° West 442 509 40,000  Level Cleveland Center
01:46PM 42.1467 -81.0481 254° West 442 509 40,000 -360 Level Cleveland Center
01:47PM 42.1144 -81.2100 255° West 442 509 39,300 -840 Descending Cleveland Center
01:48PM 42.0803 -81.3722 254° West 447 514 38,400 -900 Descending Cleveland Center
01:49PM 42.0500 -81.5256 255° West 441 507 37,500 -900 Descending Cleveland Center
01:50PM 42.0153 -81.6786 253° West 435 501 36,600 -780 Descending Cleveland Center
01:51PM 41.9822 -81.8344 254° West 435 501 36,000 -300 Descending Cleveland Center
01:52PM 41.9514 -81.9736 253° West 435 501 36,000  Level Cleveland Center
01:53PM 41.9183 -82.1264 254° West 435 501 36,000  Level Cleveland Center
01:54PM 41.8850 -82.2789 254° West 435 501 36,000  Level Cleveland Center
01:55PM 41.8511 -82.4369 254° West 435 501 36,000  Level Cleveland Center
01:56PM 41.8131 -82.6003 253° West 435 501 36,000  Level Cleveland Center
01:57PM 41.7789 -82.7522 253° West 430 495 36,000  Level Cleveland Center
01:58PM 41.7467 -82.9042 254° West 430 495 36,000  Level Cleveland Center
01:59PM 41.7122 -83.0561 253° West 430 495 36,000  Level Cleveland Center
02:00PM 41.6778 -83.2047 253° West 430 495 36,000  Level Cleveland Center
02:01PM 41.6431 -83.3536 253° West 425 489 36,000  Level Cleveland Center
02:02PM 41.6100 -83.5019 253° West 425 489 36,000  Level Cleveland Center
02:03PM 41.5750 -83.6475 252° West 420 483 36,000 -600 Level Cleveland Center
02:05PM 41.5072 -83.9567 254° West 419 482 34,200 -900 Descending Chicago Center
02:06PM 41.4722 -84.1056 253° West 421 484 33,200 -1,020 Descending Chicago Center
02:07PM 41.4656 -84.2567 267° West 417 480 32,200 -1,080 Descending Chicago Center
02:08PM 41.4739 -84.4386 274° West 412 474 31,000 -1,080 Descending Chicago Center
02:09PM 41.4792 -84.5919 273° West 414 476 30,000 -540 Descending Chicago Center
02:10PM 41.4844 -84.7453 273° West 414 476 30,000  Level Chicago Center
02:11PM 41.4897 -84.8986 273° West 415 478 30,000 -900 Level Chicago Center
02:12PM 41.4953 -85.0503 273° West 410 472 28,200 -1,920 Descending Chicago Center
02:13PM 41.4994 -85.1981 272° West 400 460 26,100 -1,860 Descending Chicago Center
02:14PM 41.5042 -85.3411 273° West 385 443 24,400 -1,380 Descending Chicago Center
02:15PM 41.5078 -85.4808 272° West 375 432 23,300 -1,020 Descending Chicago Center
02:16PM 41.5119 -85.6169 272° West 364 419 22,300 -1,620 Descending Chicago Center
02:17PM 41.5147 -85.7761 271° West 357 411 20,100 -1,980 Descending Chicago Center
02:18PM 41.5167 -85.9019 271° West 341 392 18,300 -1,800 Descending Chicago Center
02:19PM 41.5172 -86.0203 270° West 320 368 16,500 -1,740 Descending Chicago Center
02:20PM 41.5200 -86.1353 272° West 311 358 14,800 -1,680 Descending Chicago Center
02:21PM 41.5211 -86.2464 271° West 300 345 13,100 -1,560 Descending Chicago Center
02:22PM 41.5228 -86.3533 271° West 290 334 11,600 -1,020 Descending Chicago Center
02:23PM 41.5228 -86.4575 270° West 283 326 11,100 -780 Descending Chicago Center
02:24PM 41.5217 -86.5864 269° West 287 330 10,100 -540 Descending Chicago Center
02:25PM 41.5203 -86.6903 269° West 282 325 10,100  Level Chicago Center
02:27PM 41.5197 -86.7853 270° West 282 325 10,100 -300 Level Chicago Center
02:28PM 41.5178 -86.9094 269° West 281 323 9,600 -960 Descending Chicago Center
02:29PM 41.5169 -87.0058 269° West 264 304 8,200 -1,440 Descending Chicago Center
02:30PM 41.5161 -87.1022 269° West 262 302 6,700 -1,080 Descending Chicago Center
02:31PM 41.5367 -87.1906 287° West 252 290 6,000 -600 Descending Chicago Center
02:32PM 41.5658 -87.2778 294° West 258 297 5,500 -540 Descending Chicago Center
02:33PM 41.5919 -87.3825 288° West 252 290 5,000 -300 Descending Chicago Center
02:34PM 41.6108 -87.4603 288° West 230 265 5,000 -60 Level Chicago Center
02:35PM 41.6308 -87.5350 290° West 222 255 4,900 -540 Descending Chicago Center
02:36PM 41.6747 -87.5989 313° West 239 275 4,000 -1,020 Descending Chicago Center
02:37PM 41.7167 -87.6500 318° Northwest 223 257 3,100 -900 Descending Chicago TRACON
02:38PM 41.7833 -87.6667 349° North 204 235 2,300 -660 Descending Chicago TRACON
02:39PM 41.8167 -87.6833 340° North 154 177 1,800 -600 Descending Chicago TRACON
02:40PM 41.8167 -87.7167 270° West 122 140 1,100 -660 Descending Chicago TRACON